This is the latest recevied weather packets stored in our database for station/object K4AVM-13. If no packets are shown the sender has not sent any weather packets the latest 10 day(s).
| Time | Temp. | Humidity | Pressure | Rain* | Wind** | Luminosity | Snow |
|---|---|---|---|---|---|---|---|
| 1778017297 | 27.22° C | 37% | 1012.7 hPa | 0 mm | - | 119 W/m² | - |
| 1778016995 | 27.78° C | 35% | 1012.8 hPa | 0 mm | - | 119 W/m² | - |
| 1778016691 | 27.78° C | 34% | 1012.8 hPa | 0 mm | - | 156 W/m² | - |
| 1778016387 | 28.33° C | 33% | 1012.8 hPa | 0 mm | - | 159 W/m² | - |
| 1778016085 | 28.33° C | 33% | 1012.9 hPa | 0 mm | - | 259 W/m² | - |
| 1778015782 | 28.33° C | 33% | 1013 hPa | 0 mm | - | 169 W/m² | - |
| 1778015479 | 28.89° C | 32% | 1012.8 hPa | 0 mm | - | 207 W/m² | - |
| 1778015175 | 28.33° C | 32% | 1012.8 hPa | 0 mm | - | 308 W/m² | - |
| 1778014872 | 28.89° C | 32% | 1013 hPa | 0 mm | - | 310 W/m² | - |
| 1778014570 | 28.33° C | 31% | 1013 hPa | 0 mm | - | 291 W/m² | - |
| 1778014268 | 28.33° C | 32% | 1012.9 hPa | 0 mm | - | 154 W/m² | - |
| 1778013964 | 28.33° C | 32% | 1012.6 hPa | 0 mm | - | 129 W/m² | - |
| 1778013662 | 29.44° C | 29% | 1012.8 hPa | 0 mm | - | 330 W/m² | - |
| 1778013358 | 28.89° C | 29% | 1012.8 hPa | 0 mm | - | 374 W/m² | - |
| 1778013056 | 29.44° C | 29% | 1013 hPa | 0 mm | - | 350 W/m² | - |
| 1778012751 | 29.44° C | 29% | 1013 hPa | 0 mm | - | 423 W/m² | - |
| 1778012447 | 29.44° C | 30% | 1012.9 hPa | 0 mm | - | 327 W/m² | - |
| 1778012144 | 29.44° C | 30% | 1012.7 hPa | 0 mm | - | 424 W/m² | - |
| 1778011842 | 28.89° C | 30% | 1012.9 hPa | 0 mm | - | 465 W/m² | - |
| 1778011540 | 30° C | 31% | 1013 hPa | 0 mm | - | 454 W/m² | - |
| 1778011237 | 29.44° C | 29% | 1013.1 hPa | 0 mm | - | 471 W/m² | - |
| 1778010933 | 29.44° C | 30% | 1013.2 hPa | 0 mm | - | 507 W/m² | - |
| 1778010630 | 28.89° C | 28% | 1013.2 hPa | 0 mm | - | 511 W/m² | - |
| 1778010327 | 29.44° C | 28% | 1013.4 hPa | 0 mm | - | 525 W/m² | - |
| 1778010022 | 29.44° C | 29% | 1013.4 hPa | 0 mm | - | 528 W/m² | - |
* Rain latest hour (hover to see other rain measurements)
** Current wind speed in m/s (hover to see current wind gust speed)